Hourly Data Report for September 08, 2017

TORONTO CITY
ONTARIO

43°40'00.000" N
79°24'00.000" W
112.50 m
6158355
71508
XTO

Download Data

Hourly Data (September 2017)
Hourly Data Report for September 8, 2017
TIME
LST
Temp Definition
°C
Dew Point Definition
°C
Rel Hum Definition
%
Precip. Amount Definition
mm

Wind Dir Definition
10's deg

Wind Spd Definition
km/h
Visibility Definition
km
Stn Press Definition
kPa
Hmdx Definition


Wind Chill Definition


Weather Definition


00:00 12.6 8.8 78 0.0 LegendMM LegendMM   100.07     LegendNANA
01:00 12.4 9.1 80 0.0 LegendMM LegendMM   100.09     LegendNANA
02:00 12.4 9.1 80 0.0 LegendMM LegendMM   100.13     LegendNANA
03:00 11.9 9.0 82 0.0 LegendMM LegendMM   100.19     LegendNANA
04:00 12.0 8.8 81 0.0 LegendMM LegendMM   100.24     LegendNANA
05:00 11.7 8.4 80 0.0 LegendMM LegendMM   100.28     LegendNANA
06:00 11.3 8.4 82 0.0 LegendMM LegendMM   100.37     LegendNANA
07:00 11.9 8.6 80 0.0 LegendMM LegendMM   100.44     LegendNANA
08:00 13.6 8.7 72 0.0 LegendMM LegendMM   100.51     LegendNANA
09:00 14.6 8.6 67 0.0 LegendMM LegendMM   100.58     LegendNANA
10:00 15.3 8.2 63 0.0 LegendMM LegendMM   100.62     LegendNANA
11:00 16.7 8.3 58 0.0 LegendMM LegendMM   100.66     LegendNANA
12:00 17.5 7.2 51 0.0 LegendMM LegendMM   100.70     LegendNANA
13:00 17.6 6.5 48 0.0 LegendMM LegendMM   100.74     LegendNANA
14:00 18.6 5.8 43 0.0 LegendMM LegendMM   100.77     LegendNANA
15:00 17.5 5.8 46 0.0 LegendMM LegendMM   100.80     LegendNANA
16:00 17.3 6.0 47 0.0 LegendMM LegendMM   100.83     LegendNANA
17:00 16.5 4.9 46 0.0 LegendMM LegendMM   100.89     LegendNANA
18:00 15.5 4.6 48 0.0 LegendMM LegendMM   100.95     LegendNANA
19:00 14.3 6.7 60 0.0 LegendMM LegendMM   101.02     LegendNANA
20:00 13.4 7.2 66 0.0 LegendMM LegendMM   101.10     LegendNANA
21:00 12.8 7.4 70 0.0 LegendMM LegendMM   101.15     LegendNANA
22:00 12.6 7.4 71 0.0 LegendMM LegendMM   101.20     LegendNANA
23:00 12.5 7.5 72 0.0 LegendMM LegendMM   101.27     LegendNANA

Notes on Data Quality.

Legend

  • E = Estimated
  • M = Missing
  • NA = Not Available*
  • [empty] = Indicates an unobserved value
Date modified: